SM6KNE Weather Reports


Display with metric or nautical units.
time (UTC)temp
F
wind
direction
speed
MPH
gust
MPH
rain 1hr
in
rain 24hr
in
rain mn
in
humidity
%
barometer
mb
20260831051030 0 225 1.0 3.0 0.00 0.00 0.00 1007.1
20260831050028 0 285 2.0 7.0 0.00 0.00 0.00 1006.0
20260831045026 0 244 3.0 5.0 0.00 0.00 0.00 1007.1
20260831044043 58 263 1.0 4.0 0.00 0.00 0.00 94 1007.1
20260831043046 58 260 2.0 5.0 0.00 0.00 0.00 94 1006.0
20260831042020 58 192 2.0 4.0 0.00 0.00 0.00 94 1007.1
20260831041044 58 250 2.0 3.0 0.00 0.00 0.00 94 1007.1
20260831040043 58 277 1.0 2.0 0.00 0.00 0.00 94 1006.0
20260831035027 58 23 0.0 1.0 0.00 0.00 0.00 94 1006.0
20260831034043 58 0.0 0.0 0.00 0.00 0.00 94 1006.0
20260831033043 58 0.0 0.0 0.00 0.00 0.00 94 1006.0
20260831032025 58 279 2.0 4.0 0.00 0.00 0.00 95 1006.0
20260831031103 58 0.0 0.0 0.00 0.00 0.00 95 1006.0
20260831030107 58 293 0.0 1.0 0.00 0.00 0.00 95 1006.0
20260831025044 58 0.0 0.0 0.00 0.00 0.00 95 1006.0
20260831024040 58 0.0 0.0 0.00 0.00 0.00 95 1006.0
20260831023043 58 293 0.0 3.0 0.00 0.00 0.00 95 1006.0
20260831022024 58 293 0.0 1.0 0.00 0.00 0.00 95 1006.0
20260831021026 58 293 0.0 1.0 0.00 0.00 0.00 95 1006.0
20260831020043 58 264 0.0 1.0 0.00 0.00 0.00 95 1006.0
20260831015022 58 248 0.0 4.0 0.00 0.00 0.00 95 1006.0
20260831014056 58 0.0 0.0 0.00 0.00 0.00 95 1006.0
20260831013123 58 248 0.0 1.0 0.00 0.00 0.00 95 1007.1
20260831012043 58 177 0.0 2.0 0.00 0.00 0.00 95 1006.0
20260831011034 58 192 1.0 3.0 0.00 0.00 0.00 95 1006.0
20260831010124 58 0.0 0.0 0.00 0.00 0.00 95 1006.0
20260831005046 58 293 0.0 2.0 0.00 0.00 0.00 95 1007.1
20260831004032 59 236 1.0 4.0 0.00 0.00 0.00 95 1007.1
20260831003043 59 338 0.0 1.0 0.00 0.00 0.00 95 1006.0
20260831002028 59 185 2.0 6.0 0.00 0.00 0.00 95 1006.0
20260831001030 59 249 2.0 5.0 0.00 0.00 0.00 95 1006.0
20260831000042 59 270 1.0 3.0 0.00 0.00 0.00 95 1006.0
20260830235036 59 261 4.0 8.0 0.00 0.00 0.00 95 1006.0
20260830234028 59 266 4.0 6.0 0.00 0.00 0.00 95 1006.0
20260830233104 59 265 7.0 10.0 0.00 0.00 0.00 95 1006.0
20260830232030 59 250 3.0 6.0 0.00 0.00 0.00 95 1006.0
20260830231026 59 289 6.0 8.0 0.00 0.00 0.00 95 1006.0
20260830230046 59 279 4.0 7.0 0.00 0.00 0.00 95 1006.0
20260830225043 59 245 3.0 5.0 0.00 0.00 0.00 95 1006.0
20260830224024 59 269 5.0 7.0 0.00 0.00 0.00 95 1006.0
20260830223046 59 274 5.0 8.0 0.00 0.00 0.00 95 1006.0
20260830222103 59 259 5.0 8.0 0.00 0.00 0.00 95 1006.0
20260830221023 59 248 5.0 6.0 0.00 0.00 0.00 96 1006.0
20260830220042 59 268 5.0 6.0 0.00 0.00 0.00 96 1006.0
20260830215042 59 251 6.0 8.0 0.00 0.00 0.00 96 1006.0
20260830214022 59 265 6.0 7.0 0.00 0.00 0.00 96 1006.0
20260830213103 59 261 4.0 6.0 0.00 0.00 0.00 96 1006.0
20260830212043 59 248 4.0 6.0 0.00 0.00 0.00 96 1006.0
20260830211022 59 257 3.0 5.0 0.00 0.00 0.00 96 1006.0
20260830210123 59 278 3.0 4.0 0.00 0.00 0.00 96 1006.0
20260830205043 59 252 4.0 6.0 0.00 0.00 0.00 96 1005.0
20260830204016 59 237 3.0 7.0 0.00 0.00 0.00 96 1005.0
20260830203024 59 249 5.0 8.0 0.00 0.00 0.00 96 1005.0
20260830202022 60 251 6.0 8.0 0.00 0.00 0.00 96 1005.0
20260830201035 60 271 6.0 10.0 0.00 0.00 0.00 97 1005.0
20260830200023 60 259 6.0 8.0 0.00 0.00 0.00 97 1005.0
20260830195016 60 256 5.0 6.0 0.00 0.00 0.00 96 1005.0
20260830194103 60 258 4.0 6.0 0.00 0.00 0.00 97 1005.0
20260830193043 61 256 6.0 9.0 0.00 0.00 0.00 97 1005.0
20260830192024 61 242 2.0 6.0 0.00 0.00 0.00 97 1005.0
20260830191043 61 256 5.0 7.0 0.00 0.00 0.00 96 1004.0
20260830190027 61 272 5.0 8.0 0.00 0.00 0.00 96 1004.0
20260830185044 60 263 3.0 7.0 0.00 0.00 0.00 96 1004.0
20260830184043 60 0.0 0.0 0.00 0.00 0.00 96 1004.0
20260830183045 60 248 0.0 1.0 0.00 0.00 0.00 96 1004.0
20260830182045 60 0.0 0.0 0.00 0.00 0.00 96 1004.0
20260830181038 60 248 1.0 4.0 0.00 0.00 0.00 96 1004.0
20260830180036 60 0.0 0.0 0.00 0.00 0.00 96 1004.0
20260830175034 60 0.0 0.0 0.00 0.00 0.00 96 1004.0
20260830174032 60 0.0 0.0 0.00 0.00 0.00 96 1004.0
20260830173022 60 0.0 0.0 0.00 0.00 0.00 96 1003.0
20260830172028 60 268 1.0 6.0 0.00 0.00 0.00 95 1003.0
20260830171026 61 277 2.0 4.0 0.00 0.00 0.00 95 1003.0
20260830170043 61 269 2.0 4.0 0.00 0.00 0.00 95 1003.0
20260830165022 61 281 3.0 5.0 0.00 0.00 0.00 95 1003.0
20260830164103 62 270 4.0 6.0 0.00 0.00 0.00 95 1003.0
20260830163044 63 264 4.0 9.0 0.00 0.00 0.00 95 1003.0
20260830162034 64 0.0 0.0 0.00 0.00 0.00 95 1003.0
20260830161046 64 0.0 0.0 0.00 0.00 0.00 95 1003.0
20260830160015 64 0.0 0.0 0.00 0.00 0.00 95 1002.0
20260830155043 64 0.0 0.0 0.00 0.00 0.00 95 1002.0
20260830154530 64 0.0 0.0 0.00 0.00 0.00 95 1002.0
20260830153543 65 0.0 0.0 0.00 0.00 0.00 95 1002.0
20260830152543 64 0.0 0.0 0.00 0.00 0.00 94 1002.0
20260830151542 64 0.0 0.0 0.00 0.00 0.00 94 1002.0
20260830150543 64 0.0 0.0 0.00 0.00 0.00 94 1003.0
20260830145546 65 0.0 0.0 0.00 0.00 0.00 94 1003.0
20260830144543 65 0.0 0.0 0.00 0.00 0.00 94 1003.0
20260830143603 65 0.0 0.0 0.00 0.00 0.00 93 1003.0
20260830142544 65 0.0 0.0 0.00 0.00 0.00 93 1003.0
20260830141554 65 0.0 0.0 0.00 0.00 0.00 93 1002.0
20260830140542 65 0.0 0.0 0.00 0.00 0.00 93 1002.0
20260830135536 66 0.0 0.0 0.00 0.00 0.00 93 1002.0
20260830134534 66 0.0 0.0 0.00 0.00 0.00 93 1002.0
20260830133532 66 0.0 0.0 0.00 0.00 0.00 94 1002.0
20260830132530 66 0.0 0.0 0.00 0.00 0.00 94 1002.0
20260830131528 65 0.0 0.0 0.00 0.00 0.00 94 1002.0
20260830130522 65 0.0 0.0 0.00 0.00 0.00 94 1002.0
20260830125524 65 0.0 0.0 0.00 0.00 0.00 94 1002.0
20260830124544 65 0.0 0.0 0.00 0.00 0.00 94 1002.0
20260830123534 65 0.0 0.0 0.00 0.00 0.00 94 1003.0
20260830122523 65 0.0 0.0 0.00 0.00 0.00 94 1003.0
20260830121558 64 0.0 0.0 0.00 0.00 0.00 94 1003.0
20260830120543 64 0.0 0.0 0.00 0.00 0.00 94 1003.0
20260830115534 64 0.0 0.0 0.00 0.00 0.00 94 1003.0
20260830114543 64 0.0 0.0 0.00 0.00 0.00 94 1003.0
20260830113515 64 0.0 0.0 0.00 0.00 0.00 94 1003.0
20260830112531 64 0.0 0.0 0.00 0.00 0.00 94 1003.0
20260830111543 64 0.0 0.0 0.00 0.00 0.00 94 1003.0
20260830110603 64 0.0 0.0 0.00 0.00 0.00 93 1003.0
20260830105609 65 293 0.0 1.0 0.00 0.00 0.00 94 1003.0
20260830104542 65 0.0 0.0 0.00 0.00 0.00 94 1003.0
20260830103544 66 0.0 0.0 0.00 0.00 0.00 94 1003.0
20260830102536 66 0.0 0.0 0.00 0.00 0.00 93 1003.0
20260830101523 66 0.0 0.0 0.00 0.00 0.00 94 1003.0
20260830100543 65 0.0 0.0 0.00 0.00 0.00 95 1003.0
20260830095557 65 0.0 0.0 0.00 0.00 0.00 95 1003.0
20260830094623 65 293 0.0 3.0 0.00 0.00 0.00 95 1003.0
20260830093543 65 0.0 0.0 0.00 0.00 0.00 95 1003.0
20260830092543 65 0.0 0.0 0.00 0.00 0.00 95 1003.0
20260830091540 65 0.0 0.0 0.00 0.00 0.00 95 1003.0
20260830090603 65 0.0 0.0 0.00 0.00 0.00 95 1003.0
20260830085544 65 0.0 0.0 0.00 0.00 0.00 95 1003.0
20260830084542 65 338 0.0 1.0 0.00 0.00 0.00 95 1003.0
20260830083542 65 0.0 0.0 0.00 0.00 0.00 96 1003.0
20260830082542 65 0.0 0.0 0.00 0.00 0.00 96 1003.0
20260830081536 64 0.0 0.0 0.00 0.00 0.00 96 1003.0
20260830080543 64 0.0 0.0 0.00 0.00 0.00 97 1003.0
20260830075545 63 0.0 0.0 0.00 0.00 0.00 96 1003.0
20260830074534 63 0.0 0.0 0.00 0.00 0.00 96 1003.0
20260830073530 63 0.0 0.0 0.00 0.00 0.00 96 1003.0
20260830072548 63 0.0 0.0 0.00 0.00 0.00 96 1003.0
20260830071552 63 0.0 0.0 0.00 0.00 0.00 96 1003.0
20260830070632 62 0.0 0.0 0.00 0.00 0.00 96 1003.0
20260830065522 62 0.0 0.0 0.00 0.00 0.00 96 1003.0
20260830064530 62 0.0 0.0 0.00 0.00 0.00 96 1003.0
20260830063522 62 0.0 0.0 0.00 0.00 0.00 96 1003.0
20260830062543 62 0.0 0.0 0.00 0.00 0.00 96 1003.0
20260830061529 62 0.0 0.0 0.00 0.00 0.00 96 1003.0
20260830060543 62 0.0 0.0 0.00 0.00 0.00 96 1003.9
20260830055543 61 0.0 0.0 0.00 0.00 0.00 96 1004.0
20260830054526 61 0.0 0.0 0.00 0.00 0.00 96 1004.0
20260830053603 61 0.0 0.0 0.00 0.00 0.00 96 1003.2
20260830052543 61 0.0 0.0 0.00 0.00 0.00 96 1003.0
20260830051524 61 0.0 0.0 0.00 0.00 0.00 96 1004.0